GPS BIII-7 (PRN 01)

Last updated on Fri Dec 12 2025 00:03:18 GMT+0000 (Coordinated Universal Time)

1 62339U 24242A 25344.58590382 -.00000090 00000+0 00000+0 0 9993 2 62339 54.9242 341.8267 0012131 344.3310 161.0631 2.00567746 7471
UTC large
Height (km)
Speed (km/s)
/
Latitude / Longitude
Inclination (degrees)
Orbital Period (minutes)
Azimuth
Elevation
Range (km)
Doppler Factor

Next 0 passes for location: London (51.5072 / 0.1276)

Sorry there are no passes over London.